Location: Chakepay
(13.3931°S, 72.1925°W)
Time: 05:24:54
(UTC+00:00)

GPS 2-15 Rocket1 - Pass Details

Date: 15 November 2019
Orbit: 624 x 675 km, 19.8° (Epoch: 12 December)

Event Time Altitude Azimuth Distance (km) Brightness Sun altitude
Exits shadow 08:35:52 58° 257° (WSW) 752 3.1 -22.3°
Maximum altitude 08:36:43 74° 194° (SSW) 671 3.1 -22.1°
Drops below altitude 10° 08:41:28 10° 109° (ESE) 2,024 6.9 -21.1°
Sets 08:43:50 0° 107° (ESE) 2,925 8.0 -20.5°
